Weather History for Arlington, WA

Change the Weather History Date:

Friday, November 2, 2012

  Actual Average Record
Temperature  
Mean Temperature 54 °F -  
Max Temperature 60 °F 61 °F 62 °F (2010)
Min Temperature 48 °F 35 °F 21 °F (2002)
Degree Days  
Heating Degree Days 11    
Growing Degree Days 4 (Base 50)    
Moisture  
Dew Point 49 °F    
Average Humidity 83    
Maximum Humidity 94    
Minimum Humidity 72    
Precipitation  
Precipitation 0.05 in - - ()
Sea Level Pressure  
Sea Level Pressure 30.01 in    
Wind  
Wind Speed 5 mph (SE)    
Max Wind Speed 14 mph    
Max Gust Speed 18 mph    
Visibility 10 miles    
Events      
Averages and records for this station are not official NWS values.
T = Trace of Precipitation, MM = Missing Value Source: NWS Daily Summary

Daily Weather History Graph

Daily Weather History Graph

Search for Another Location

Airport:

Trip Planner

Search our weather history database for the weather conditions in past years. The results will help you decide how hot, cold, wet, or windy it might be!

Date:

Astronomy

Nov. 02, 2012 Rise Set
Actual Time 7:56 AM PDT 5:47 PM PDT
Civil Twilight 7:23 AM PDT 6:20 PM PDT
Nautical Twilight 6:46 AM PDT 6:56 PM PDT
Astronomical Twilight 6:10 AM PDT 7:33 PM PDT
Moon 8:29 PM PDT (11/2) 11:30 AM PDT (11/2)
Length of Visible Light 10h 56m
Length of Day
9h 50m
Waning Gibbous, 86% of the Moon is Illuminated
Nov 2
Waning Gibbous
Nov 6
Last Quarter
Nov 13
New
Nov 20
First Quarter
Nov 28
Full

Hourly Weather History & Observations

Time (PDT) Temp. Dew Point Humidity Pressure Visibility Wind Dir Wind Speed Gust Speed Precip Events Conditions
12:15 AM 53.6 °F 48.2 °F 82% 30.02 in 10.0 mi SE 13.8 mph - N/A   Overcast
12:35 AM 53.6 °F 48.2 °F 82% 30.02 in 10.0 mi SE 13.8 mph 18.4 mph N/A   Mostly Cloudy
12:55 AM 53.6 °F 48.2 °F 82% 30.03 in 10.0 mi SE 11.5 mph - N/A   Mostly Cloudy
1:15 AM 53.6 °F 48.2 °F 82% 30.03 in 10.0 mi SE 9.2 mph - N/A   Overcast
1:35 AM 53.6 °F 48.2 °F 82% 30.04 in 10.0 mi SSE 9.2 mph - N/A   Overcast
1:55 AM 53.6 °F 48.2 °F 82% 30.04 in 10.0 mi South 6.9 mph - N/A   Overcast
2:15 AM 53.6 °F 48.2 °F 82% 30.03 in 10.0 mi SE 11.5 mph - N/A   Overcast
2:35 AM 55.4 °F 48.2 °F 77% 30.04 in 10.0 mi SSE 9.2 mph 16.1 mph N/A   Overcast
2:55 AM 55.4 °F 48.2 °F 77% 30.05 in 10.0 mi SSE 9.2 mph - N/A   Overcast
3:15 AM 53.6 °F 48.2 °F 82% 30.04 in 10.0 mi SSE 4.6 mph - N/A   Overcast
3:35 AM 53.6 °F 48.2 °F 82% 30.05 in 10.0 mi SSE 8.1 mph - N/A   Overcast
3:55 AM 53.6 °F 48.2 °F 82% 30.05 in 10.0 mi South 4.6 mph - N/A   Overcast
4:15 AM 53.6 °F 48.2 °F 82% 30.04 in 10.0 mi SE 5.8 mph - N/A   Overcast
4:35 AM 53.6 °F 48.2 °F 82% 30.04 in 10.0 mi ESE 4.6 mph - N/A   Mostly Cloudy
4:55 AM 53.6 °F 48.2 °F 82% 30.04 in 10.0 mi Calm Calm - N/A   Partly Cloudy
5:15 AM 53.6 °F 46.4 °F 77% 30.05 in 10.0 mi ESE 3.5 mph - N/A   Scattered Clouds
5:35 AM 50.0 °F 46.4 °F 87% 30.04 in 9.0 mi Calm Calm - N/A   Mostly Cloudy
5:55 AM 51.8 °F 46.4 °F 82% 30.04 in 10.0 mi Calm Calm - N/A   Mostly Cloudy
6:15 AM 50.0 °F 46.4 °F 87% 30.04 in 10.0 mi Calm Calm - N/A   Overcast
6:35 AM 51.8 °F 48.2 °F 88% 30.04 in 10.0 mi Calm Calm - N/A   Overcast
6:55 AM 51.8 °F 46.4 °F 82% 30.03 in 10.0 mi Calm Calm - N/A   Overcast
7:15 AM 50.0 °F 46.4 °F 87% 30.03 in 10.0 mi NNW 3.5 mph - N/A   Mostly Cloudy
7:35 AM 50.0 °F 46.4 °F 87% 30.02 in 10.0 mi NNE 4.6 mph - N/A   Scattered Clouds
7:55 AM 50.0 °F 46.4 °F 87% 30.02 in 10.0 mi Calm Calm - N/A   Partly Cloudy
8:15 AM 48.2 °F 46.4 °F 93% 30.02 in 10.0 mi Calm Calm - N/A   Partly Cloudy
8:35 AM 48.2 °F 46.4 °F 93% 30.03 in 10.0 mi Calm Calm - N/A   Scattered Clouds
8:55 AM 48.2 °F 46.4 °F 93% 30.03 in 10.0 mi Calm Calm - N/A   Clear
9:15 AM 51.8 °F 48.2 °F 88% 30.04 in 10.0 mi Calm Calm - N/A   Clear
9:35 AM 51.8 °F 48.2 °F 88% 30.03 in 10.0 mi Calm Calm - N/A   Clear
9:55 AM 51.8 °F 48.2 °F 88% 30.03 in 10.0 mi Calm Calm - N/A   Clear
10:15 AM 51.8 °F 48.2 °F 88% 30.04 in 10.0 mi Calm Calm - N/A   Clear
10:35 AM 53.6 °F 48.2 °F 82% 30.04 in 10.0 mi Calm Calm - N/A   Clear
10:55 AM 53.6 °F 48.2 °F 82% 30.04 in 10.0 mi Calm Calm - N/A   Scattered Clouds
11:15 AM 53.6 °F 48.2 °F 82% 30.04 in 10.0 mi Calm Calm - N/A   Mostly Cloudy
11:35 AM 55.4 °F 50.0 °F 82% 30.04 in 10.0 mi Calm Calm - N/A   Overcast
11:55 AM 55.4 °F 50.0 °F 82% 30.04 in 10.0 mi Calm Calm - N/A   Overcast
12:15 PM 57.2 °F 51.8 °F 82% 30.04 in 10.0 mi Calm Calm - N/A   Overcast
12:35 PM 57.2 °F 50.0 °F 77% 30.03 in 10.0 mi Calm Calm - N/A   Mostly Cloudy
12:55 PM 57.2 °F 51.8 °F 82% 30.03 in 10.0 mi Calm Calm - N/A   Overcast
1:15 PM 57.2 °F 51.8 °F 82% 30.02 in 10.0 mi Calm Calm - N/A   Overcast
1:35 PM 59.0 °F 51.8 °F 77% 30.01 in 10.0 mi Calm Calm - N/A   Overcast
1:55 PM 59.0 °F 51.8 °F 77% 30.00 in 10.0 mi NE 4.6 mph - N/A   Overcast
2:15 PM 60.8 °F 51.8 °F 72% 30.00 in 10.0 mi Calm Calm - N/A   Overcast
2:35 PM 60.8 °F 51.8 °F 72% 29.99 in 10.0 mi Calm Calm - N/A   Overcast
2:55 PM 60.8 °F 51.8 °F 72% 29.99 in 10.0 mi Calm Calm - N/A   Overcast
3:15 PM 60.8 °F 51.8 °F 72% 29.98 in 10.0 mi NE 5.8 mph - N/A   Overcast
3:35 PM 60.8 °F 51.8 °F 72% 29.99 in 10.0 mi Calm Calm - N/A   Overcast
3:55 PM 60.8 °F 51.8 °F 72% 29.98 in 10.0 mi Calm Calm - N/A   Overcast
4:15 PM 60.8 °F 51.8 °F 72% 29.98 in 10.0 mi Calm Calm - N/A   Overcast
4:35 PM 59.0 °F 53.6 °F 82% 29.98 in 10.0 mi Calm Calm - N/A   Overcast
4:55 PM 57.2 °F 51.8 °F 82% 29.97 in 10.0 mi Calm Calm - N/A   Mostly Cloudy
5:15 PM 57.2 °F 53.6 °F 88% 29.97 in 10.0 mi Calm Calm - N/A   Mostly Cloudy
5:35 PM 57.2 °F 50.0 °F 77% 29.98 in 10.0 mi SW 5.8 mph - N/A   Overcast
5:55 PM 55.4 °F 48.2 °F 77% 29.99 in 10.0 mi Calm Calm - N/A   Overcast
6:15 PM 55.4 °F 48.2 °F 77% 30.00 in 10.0 mi SSW 4.6 mph - N/A   Overcast
6:35 PM 55.4 °F 48.2 °F 77% 30.00 in 10.0 mi South 4.6 mph - N/A   Overcast
6:55 PM 53.6 °F 50.0 °F 88% 30.01 in 10.0 mi SE 4.6 mph - N/A   Overcast
7:15 PM 53.6 °F 50.0 °F 88% 30.00 in 7.0 mi ESE 4.6 mph - 0.02 in   Overcast
7:35 PM 53.6 °F 50.0 °F 88% 30.00 in 8.0 mi Calm Calm - 0.04 in   Overcast
7:55 PM 53.6 °F 50.0 °F 88% 29.99 in 10.0 mi Calm Calm - 0.04 in   Overcast
8:15 PM 53.6 °F 50.0 °F 88% 29.98 in 10.0 mi Calm Calm - N/A   Overcast
8:35 PM 53.6 °F 48.2 °F 82% 29.98 in 10.0 mi Calm Calm - N/A   Overcast
8:55 PM 51.8 °F 50.0 °F 94% 29.98 in 10.0 mi SSW 4.6 mph - N/A   Overcast
9:15 PM 51.8 °F 50.0 °F 94% 29.98 in 10.0 mi SSE 5.8 mph - N/A   Overcast
9:35 PM 53.6 °F 50.0 °F 88% 29.98 in 10.0 mi ESE 3.5 mph - N/A   Overcast
9:55 PM 53.6 °F 50.0 °F 88% 29.98 in 10.0 mi SE 4.6 mph - N/A   Overcast
10:15 PM 53.6 °F 50.0 °F 88% 29.98 in 10.0 mi SE 5.8 mph - N/A   Overcast
10:35 PM 53.6 °F 50.0 °F 88% 29.98 in 10.0 mi SE 4.6 mph - N/A   Overcast
10:55 PM 53.6 °F 50.0 °F 88% 29.98 in 10.0 mi Calm Calm - N/A   Overcast
11:15 PM 53.6 °F 50.0 °F 88% 29.99 in 10.0 mi Calm Calm - N/A   Overcast
11:35 PM 53.6 °F 50.0 °F 88% 29.99 in 7.0 mi Calm Calm - 0.01 in   Overcast